GW0859 Weather Reports


time (UTC)temp
F
wind
direction
speed
knots
gust
knots
rain 1hr
in
rain 24hr
in
rain mn
in
humidity
%
barometer
mb
20260506015306 70 186 2.6 4.3 0.00 0.03 0.03 52 1010.4
20260506014303 71 174 1.7 1.7 0.00 0.03 0.03 52 1010.1
20260506013302 71 178 1.7 2.6 0.00 0.03 0.03 52 1010.0
20260506012306 71 163 0.9 0.9 0.00 0.03 0.03 51 1009.9
20260506011301 71 173 0.9 0.9 0.00 0.03 0.03 51 1009.6
20260506010257 71 176 1.7 1.7 0.00 0.03 0.03 51 1009.6
20260506005256 71 180 0.9 1.7 0.00 0.03 0.03 50 1009.4
20260506004256 72 172 0.9 1.7 0.00 0.03 0.03 49 1009.5
20260506003254 72 166 3.5 4.3 0.00 0.03 0.03 48 1009.4
20260506002253 73 170 2.6 4.3 0.00 0.03 0.03 47 1009.3
20260506001252 73 165 2.6 2.6 0.00 0.03 0.03 47 1009.1
20260506000252 74 192 0.9 1.7 0.00 0.03 0.03 46 1009.2
20260505235252 74 211 1.7 4.3 0.00 0.03 0.03 46 1009.1
20260505234252 74 199 0.9 1.7 0.00 0.03 0.03 45 1008.9
20260505233247 74 186 2.6 2.6 0.00 0.03 0.03 44 1008.9
20260505232247 75 197 2.6 4.3 0.00 0.03 0.03 45 1008.8
20260505231242 75 139 1.7 2.6 0.00 0.03 0.03 45 1008.9
20260505230242 75 159 1.7 2.6 0.00 0.03 0.03 44 1008.7
20260505225242 75 174 0.9 1.7 0.00 0.03 0.03 45 1008.5
20260505224241 75 203 0.9 2.6 0.00 0.03 0.03 45 1008.4
20260505223240 75 186 3.5 4.3 0.00 0.03 0.03 45 1008.5
20260505222239 76 186 0.9 0.9 0.00 0.03 0.03 44 1008.5
20260505221238 76 186 0.9 1.7 0.00 0.03 0.03 44 1008.4
20260505220233 76 199 2.6 2.6 0.00 0.03 0.03 43 1008.2
20260505215228 76 209 4.3 6.1 0.00 0.03 0.03 43 1008.3
20260505214223 76 199 2.6 2.6 0.00 0.03 0.03 43 1008.4
20260505213218 77 182 2.6 2.6 0.00 0.03 0.03 44 1008.3
20260505212217 77 180 2.6 4.3 0.00 0.03 0.03 42 1008.2
20260505211217 78 163 3.5 5.2 0.00 0.03 0.03 43 1007.9
20260505210216 78 206 4.3 5.2 0.00 0.03 0.03 43 1008.0
20260505205212 78 197 3.5 4.3 0.00 0.03 0.03 43 1008.1
20260505204212 78 203 2.6 4.3 0.00 0.03 0.03 43 1008.2
20260505203212 78 168 2.6 4.3 0.00 0.03 0.03 44 1008.1
20260505202209 79 181 1.7 2.6 0.00 0.03 0.03 40 1008.0
20260505201204 79 192 3.5 5.2 0.00 0.03 0.03 36 1008.0
20260505200204 80 141 3.5 6.1 0.00 0.03 0.03 38 1008.0
20260505195203 79 229 4.3 6.1 0.00 0.03 0.03 37 1008.4
20260505194202 80 144 3.5 6.1 0.00 0.03 0.03 37 1008.4
20260505193202 80 199 6.1 9.6 0.00 0.03 0.03 36 1008.5
20260505192157 81 169 5.2 8.7 0.00 0.03 0.03 36 1008.5
20260505191153 80 251 4.3 7.8 0.00 0.03 0.03 35 1008.7
20260505190149 80 123 2.6 4.3 0.00 0.03 0.03 36 1008.5
20260505185148 79 181 5.2 6.1 0.00 0.03 0.03 38 1009.1
20260505184148 80 247 5.2 9.6 0.00 0.03 0.03 37 1009.1
20260505183148 79 189 4.3 7.0 0.00 0.03 0.03 38 1009.1
20260505182147 80 154 7.0 12.2 0.00 0.03 0.03 37 1009.3
20260505181147 80 256 2.6 5.2 0.00 0.03 0.03 40 1009.2
20260505180147 80 187 4.3 5.2 0.00 0.03 0.03 41 1009.4
20260505175145 79 266 4.3 6.1 0.00 0.03 0.03 43 1009.6
20260505174143 79 145 2.6 5.2 0.00 0.03 0.03 45 1009.6
20260505173143 79 179 4.3 7.0 0.00 0.03 0.03 44 1009.6
20260505172143 78 148 4.3 6.1 0.00 0.03 0.03 47 1009.6
20260505171140 78 204 4.3 6.1 0.00 0.03 0.03 49 1010.0
20260505170140 76 158 3.5 6.1 0.00 0.03 0.03 50 1010.0
20260505165137 78 191 2.6 2.6 0.00 0.03 0.03 48 1010.0
20260505164136 78 173 3.5 5.2 0.00 0.03 0.03 49 1010.1
20260505163131 78 204 3.5 6.1 0.00 0.03 0.03 48 1010.4
20260505162126 77 211 4.3 5.2 0.00 0.03 0.03 50 1010.6
20260505161126 76 153 1.7 2.6 0.00 0.03 0.03 53 1010.6
20260505160121 75 248 3.5 5.2 0.00 0.03 0.03 54 1010.6
20260505153112 74 163 2.6 2.6 0.00 0.03 0.03 58 1011.2
20260505152109 74 189 3.5 5.2 0.00 0.03 0.03 58 1011.2
20260505151108 73 198 1.7 4.3 0.00 0.03 0.03 60 1011.3
20260505150107 73 168 0.0 0.9 0.00 0.03 0.03 64 1011.4
20260505124045 63 165 0.9 1.7 0.00 0.03 0.03 77 1011.7
20260505123044 62 134 0.9 0.9 0.00 0.03 0.03 78 1011.7
20260505122044 62 206 0.9 0.9 0.00 0.03 0.03 78 1011.7
20260505121043 62 139 0.0 0.0 0.00 0.03 0.03 83 1011.9
20260505120041 61 196 0.0 0.9 0.00 0.03 0.03 82 1012.0
20260505115039 58 149 0.0 0.0 0.00 0.03 0.03 89 1011.7
20260505114038 56 154 0.0 0.9 0.00 0.03 0.03 94 1011.6
20260505113037 55 152 0.0 0.0 0.00 0.03 0.03 99 1011.3
20260505112032 53 152 0.0 0.0 0.00 0.03 0.03 99 1011.2
20260505111028 51 131 0.0 0.0 0.00 0.03 0.03 99 1011.3
20260505102015 49 117 0.0 0.9 0.00 0.03 0.03 99 1011.4
20260505101015 49 160 0.0 0.0 0.00 0.03 0.03 99 1011.1
20260505100015 49 148 0.0 0.9 0.00 0.03 0.03 99 1010.9
20260505095013 50 129 0.9 0.9 0.00 0.03 0.03 99 1010.8
20260505094012 50 126 0.0 0.9 0.00 0.03 0.03 99 1011.0
20260505093012 51 350 0.9 0.9 0.00 0.03 0.03 99 1010.7
20260505092008 51 359 1.7 1.7 0.05 0.03 0.03 98 1010.8
20260505091002 50 189 0.9 0.9 0.12 0.02 0.02 96 1010.8
20260505085957 51 150 0.9 0.9 0.00 0.00 0.00 92 1011.3
20260505084953 52 249 1.7 1.7 0.00 0.00 0.00 86 1011.4
20260505083949 52 119 0.0 0.0 0.00 0.00 0.00 82 1011.4
20260505082948 51 105 0.9 0.9 0.00 0.00 0.00 83 1011.1
20260505081947 51 109 0.0 0.0 0.00 0.00 0.00 82 1011.0
20260505080946 50 116 0.0 0.0 0.00 0.00 0.00 84 1010.7
20260505075943 51 115 0.0 0.0 0.00 0.00 0.00 83 1010.6
20260505074938 52 18 1.7 1.7 0.00 0.00 0.00 79 1010.5
20260505073938 51 93 0.9 0.9 0.00 0.00 0.00 80 1010.6
20260505072938 51 97 0.0 0.0 0.00 0.00 0.00 81 1010.7
20260505071936 51 96 0.0 0.0 0.00 0.00 0.00 81 1010.9
20260505070936 51 95 0.9 0.9 0.00 0.00 0.00 83 1010.7
20260505065934 52 109 0.0 0.0 0.00 0.00 0.00 80 1010.7
20260505064933 52 123 0.9 0.9 0.00 0.00 0.00 78 1010.7
20260505063929 52 125 0.0 0.0 0.00 0.00 0.00 77 1010.9
20260505062927 52 125 0.9 0.9 0.00 0.00 0.00 77 1010.8
20260505061926 52 126 0.0 0.0 0.00 0.00 0.00 81 1011.0
20260505060922 53 77 0.9 0.9 0.00 0.00 0.00 78 1010.9
20260505055921 52 119 0.9 0.9 0.00 0.00 0.00 78 1011.0
20260505054920 53 120 0.0 0.0 0.00 0.00 0.00 77 1010.9
20260505053915 53 106 0.9 0.9 0.00 0.00 0.00 75 1011.0
20260505052915 53 125 0.0 0.9 0.00 0.00 0.00 74 1011.1
20260505051915 53 56 1.7 1.7 0.00 0.00 0.00 73 1010.9
20260505050910 53 50 0.9 0.9 0.00 0.00 0.00 75 1010.9
20260505040901 54 17 0.9 0.9 0.00 0.00 0.00 70 1010.4
20260505035901 54 332 0.9 0.9 0.00 0.00 0.00 70 1010.5
20260505034900 54 312 0.0 0.0 0.00 0.00 0.00 70 1010.4
20260505033900 55 311 0.0 0.9 0.00 0.00 0.00 68 1010.6
20260505032901 55 312 0.9 0.9 0.00 0.00 0.00 67 1010.7
20260505031859 57 311 0.0 0.0 0.00 0.00 0.00 65 1010.7
20260505030854 59 311 0.9 0.9 0.00 0.00 0.00 58 1010.7
20260505025851 59 201 0.9 0.9 0.00 0.00 0.00 59 1010.8
20260505024847 59 173 0.0 0.0 0.00 0.00 0.00 59 1010.9
20260505023847 59 192 0.0 0.0 0.00 0.00 0.00 59 1010.9
20260505022847 59 153 0.0 0.0 0.00 0.00 0.00 59 1010.9
20260505021847 60 196 0.0 0.0 0.00 0.00 0.00 58 1011.0
20260505020845 59 110 0.0 0.9 0.00 0.00 0.00 58 1010.8
20260505015844 60 158 0.0 0.0 0.00 0.00 0.00 58 1010.9